Burlington, VT

6:29 PM EST on November 21, 2019 (GMT -0500)
Burlington International

Weather History for KBTV - September, 2019

Change the Weather History Date:

Saturday, September 14, 2019

  Actual Average Record
Temperature  
Mean Temperature 65 °F 61 °F  
Max Temperature 70 °F 71 °F 89 °F (1915)
Min Temperature 60 °F 52 °F 32 °F (1963)
Degree Days  
Heating Degree Days 0 5  
Month to date heating degree days 35 47  
Since 1 July heating degree days 39 89  
Cooling Degree Days 0 1  
Month to date cooling degree days 9 32  
Year to date cooling degree days 589 480  
Growing Degree Days 15 (Base 50)    
Moisture  
Dew Point 53 °F    
Average Humidity 71    
Maximum Humidity 90    
Minimum Humidity 51    
Precipitation  
Precipitation T in 0.12 in 2.21 in (1951)
Month to date precipitation 2.23 1.58  
Year to date precipitation 28.52 25.65  
Snow  
Snow 0.00 in 0.00 in 0.00 in (2002)
Month to date snowfall 0.0 0.0  
Since 1 July snowfall 0.0 0.0  
Since 1 September snowfall 0.0 0.0  
Snow Depth 0.00 in    
Sea Level Pressure  
Sea Level Pressure 30.13 in    
Wind  
Wind Speed 17 mph (South)    
Max Wind Speed 30 mph    
Max Gust Speed 42 mph    
Visibility 10 miles    
Events Rain    
T = Trace of Precipitation, MM = Missing Value Source: NWS Daily Summary

Daily Weather History Graph

Daily Weather History Graph

Search for Another Location

Airport or City:

Astronomy

Sep. 14, 2019 Rise Set
Actual Time 6:30 AM EDT 7:05 PM EDT
Civil Twilight 6:00 AM EDT 7:34 PM EDT
Nautical Twilight 5:26 AM EDT 8:09 PM EDT
Astronomical Twilight 4:50 AM EDT 8:45 PM EDT
Moon 7:45 PM EDT (9/14) 6:39 AM EDT (9/14)
Length of Visible Light 13h 33m
Length of Day
12h 35m
Full, 100% of the Moon is Illuminated
Sep 14
Full
Sep 21
Last Quarter
Sep 28
New
Oct 5
First Quarter
Oct 13
Full

Hourly Weather History & Observations

Time (EDT) Temp. Dew Point Humidity Pressure Visibility Wind Dir Wind Speed Gust Speed Precip Events Conditions
12:54 AM 62.1 °F 45.0 °F 53% 30.24 in 10.0 mi South 16.1 mph 32.2 mph N/A   Clear
1:54 AM 61.0 °F 44.1 °F 54% 30.23 in 10.0 mi South 21.9 mph 35.7 mph N/A   Clear
2:54 AM 61.0 °F 45.0 °F 56% 30.21 in 10.0 mi South 15.0 mph 31.1 mph N/A   Overcast
3:54 AM 60.1 °F 45.0 °F 57% 30.18 in 10.0 mi South 20.7 mph 33.4 mph N/A   Mostly Cloudy
4:54 AM 60.1 °F 43.0 °F 53% 30.20 in 10.0 mi South 18.4 mph 38.0 mph N/A   Overcast
5:54 AM 60.1 °F 45.0 °F 57% 30.19 in 10.0 mi South 23.0 mph 34.5 mph N/A   Mostly Cloudy
6:54 AM 60.1 °F 45.0 °F 57% 30.19 in 10.0 mi South 24.2 mph 33.4 mph 0.00 in   Overcast
8:54 AM 60.1 °F 50.0 °F 69% 30.17 in 10.0 mi South 18.4 mph 33.4 mph 0.00 in   Overcast
9:54 AM 61.0 °F 51.1 °F 70% 30.17 in 10.0 mi South 17.3 mph 34.5 mph 0.00 in Rain Light Rain
10:54 AM 63.0 °F 53.1 °F 70% 30.15 in 10.0 mi South 21.9 mph 32.2 mph 0.00 in   Overcast
11:54 AM 66.9 °F 55.0 °F 66% 30.13 in 10.0 mi South 15.0 mph 32.2 mph N/A   Mostly Cloudy
12:54 PM 68.0 °F 55.9 °F 65% 30.11 in 10.0 mi South 26.5 mph 35.7 mph N/A   Mostly Cloudy
1:54 PM 69.1 °F 55.9 °F 63% 30.09 in 10.0 mi South 16.1 mph 32.2 mph N/A   Mostly Cloudy
2:54 PM 69.1 °F 57.0 °F 65% 30.08 in 10.0 mi South 18.4 mph 29.9 mph N/A   Mostly Cloudy
3:21 PM 68.0 °F 57.0 °F 68% 30.07 in 10.0 mi South 21.9 mph 28.8 mph N/A   Mostly Cloudy
3:54 PM 68.0 °F 57.0 °F 68% 30.06 in 10.0 mi South 19.6 mph 29.9 mph N/A   Mostly Cloudy
4:49 PM 69.8 °F 57.2 °F 64% 30.05 in 10.0 mi South 23.0 mph 33.4 mph N/A   Mostly Cloudy
4:54 PM 69.1 °F 57.9 °F 68% 30.05 in 10.0 mi South 16.1 mph 33.4 mph N/A   Mostly Cloudy
5:54 PM 68.0 °F 57.9 °F 70% 30.05 in 10.0 mi South 19.6 mph 26.5 mph N/A   Mostly Cloudy
6:54 PM 66.9 °F 57.9 °F 73% 30.05 in 10.0 mi South 17.3 mph 24.2 mph N/A   Mostly Cloudy
7:54 PM 66.0 °F 59.0 °F 78% 30.07 in 10.0 mi South 15.0 mph - N/A   Mostly Cloudy
8:54 PM 64.9 °F 59.0 °F 81% 30.09 in 10.0 mi SSW 5.8 mph - N/A   Mostly Cloudy
9:54 PM 64.9 °F 59.0 °F 81% 30.10 in 10.0 mi SSW 5.8 mph - N/A   Mostly Cloudy
10:54 PM 64.9 °F 59.0 °F 81% 30.10 in 10.0 mi SSW 9.2 mph - N/A   Mostly Cloudy
11:54 PM 62.1 °F 59.0 °F 90% 30.09 in 10.0 mi South 6.9 mph - N/A   Scattered Clouds